Weather in Belogorsk

Russia / Kemerovo Oblast     55°01′09″N   88°29′24″E
temp.,
°C
wind,
m/s
gust,
m/s
humid.,
%
clouds,
%
prec.,
mm/h
press.,
hPa
HPBL,
m
28 june, tue
tue2801:00+15ssw61796100 4.0 9961160
04:00+14w61498100 2.0 9971149
07:00+10wsw51399100 2.6 10021150
10:00+10wsw51194100 0.4 1006955
13:00+11sw51179100 0.6 10081238
16:00+14wsw5107087 0.4 10081337
19:00+14wsw487740 0.8 10081178
22:00+9sw249768 0.1 101076
29 june, wed
wed2901:00+7s239810 0.1 101044
04:00+7se229787 0.0 101022
07:00+10sse1284100 0.0 1008106
10:00+17ssw23495 0.0 10061257
13:00+21sw35380 0.0 10041743
16:00+22sw36337 0.0 10011549
19:00+22s264933 0.0 1000781
22:00+15se2270100 0.0 99839
30 june, thu
thu3001:00+13wsw3678100 0.0 998124
04:00+12sse2279100 0.0 99738
07:00+14sw2995100 0.5 998482
10:00+12sw41096100 0.6 1002959
13:00+16sw610514 0.7 10031428
16:00+17sw69431 0.0 10031603
19:00+16sw46510 0.0 10041451
22:00+9s21840 0.0 100512
1 july, fri
fri101:00+8s2288100 0.0 100523
04:00+7s11914 0.0 100513
07:00+12ssw127026 0.0 1004161
10:00+17wsw354931 0.0 10041427
13:00+18w464295 0.0 10031962
16:00+18w464598 0.0 10041876
19:00+14w3560100 0.0 10051030
22:00+8sw11920 0.0 100810
2 july, sat
sat201:00+6s22965 0.0 100824
04:00+6sse23956 0.0 100841
07:00+10s2572100 0.0 1007160
10:00+14sw575398 0.1 10061664
13:00+16wsw5747100 0.2 10052198
16:00+16wsw574735 0.1 10041874
19:00+13sw366710 0.7 1004910
22:00+10sse2181100 0.1 100318